"Pseudo-MPEC" for CEJK0G2

Created 2026 Apr 16 23:35:10 UT using Find_Orb

Click here for an explanation of pseudo-MPECs

 
 Astrometry: 
     CEJK0G2*1C2026 04 16.41330316 28 07.738+05 27 30.13   ~4GAo 20.91GVNEOCPG96
     CEJK0G2 1C2026 04 16.41847016 28 05.441+05 27 28.44   ~4GAo 20.73GVNEOCPG96
     CEJK0G2 1C2026 04 16.42363216 28 03.101+05 27 26.21   ~4GAo 20.94GVNEOCPG96
     CEJK0G2 1C2026 04 16.42879716 28 00.728+05 27 24.48   ~4GAo 20.62GVNEOCPG96
     CEJK0G2  C2026 04 16.44395016 27 53.532+05 27 15.41   ~4GBZ 20.5 GWNEOCPH01
     CEJK0G2  C2026 04 16.44739116 27 51.989+05 27 14.04   ~4GBZ 20.7 GWNEOCPH01
     CEJK0G2 1C2026 04 16.44794616 27 52.124+05 27 17.06   ~4GB5 21.25GVNEOCPI52
     CEJK0G2 1C2026 04 16.44892016 27 51.660+05 27 16.31   ~4GB5 20.86GVNEOCPI52
     CEJK0G2 1C2026 04 16.44989616 27 51.260+05 27 15.23   ~4GB5 20.62GVNEOCPI52
     CEJK0G2 1C2026 04 16.45086316 27 50.821+05 27 16.09   ~4GB5 21.00GVNEOCPI52
     CEJK0G2  C2026 04 16.45960716 27 46.513+05 27 09.12   ~4GBZ 20.2 GWNEOCPH01
     CEJK0G2  C2026 04 16.46584316 27 43.733+05 27 06.56   ~4GBZ 20.6 GWNEOCPH01
     CEJK0G2 1C2026 04 16.47816416 27 38.570+05 27 04.07   ~4GBo 21.09GVNEOCPI52
     CEJK0G2 1C2026 04 16.47913516 27 38.153+05 27 03.71   ~4GBo 20.85GVNEOCPI52
     CEJK0G2 1C2026 04 16.48010516 27 37.717+05 27 03.24   ~4GBo 20.70GVNEOCPI52
     CEJK0G2 1C2026 04 16.48106716 27 37.271+05 27 02.95   ~4GBo 20.90GVNEOCPI52

Station data:
(G96) Mt. Lemmon Survey  (N32.442729 W110.788720)  US/Arizona.  Observer E.
   J. Christensen. Measurers T. Beuden, V. F. Carvajal, D. Fay, J. B.
   Fazekas, D. C. Fuls, A. R. Gibbs, A. D. Grauer, H. Gröller, J. K. Hogan,
   R. A. Kowalski, S. M. Larson, G. J. Leonard, D. Rankin, R. L. Seaman, F.
   C. Shelly, K. W. Wierzchoś. 1.5-m reflector + 10K CCD.
(H01) Magdalena Ridge Observatory, Socorro  (N33.984833 W107.189333)  US/New
   Mexico.  Observers W. H. Ryan, E. V. Ryan. Measurer W. H. Ryan. 2.4-m
   f/8.9 reflector + CCD.
(I52) Steward Observatory, Mt. Lemmon Station  (N32.442570 W110.788920)
   US/Arizona. Measurers T. Beuden, V. F. Carvajal, D. Fay, J. B. Fazekas, D.
   C. Fuls, A. R. Gibbs, A. D. Grauer, H. Gröller, J. K. Hogan, R. A.
   Kowalski, S. M. Larson, G. J. Leonard, D. Rankin, R. L. Seaman, F. C.
   Shelly, K. W. Wierzchoś. 1.0-m prime focus + CCD.

Orbital elements:  CEJK0G2
   Perihelion 2026 Feb 26.520687 +/- 17.6 TT = 12:29:47.3 (JD 2461098.020687)
Epoch 2026 Apr 16.0 TT = JDT 2461146.5   Earth MOID: 0.0147   Ma: 0.0726
M  21.756846100 +/- 28              (J2000 ecliptic)             AutoNEOCP
n   0.448786192 +/- 0.427           Peri.  315.321342 +/- 3.3
a   1.689570785 +/- 1.07            Node   190.052313 +/- 12
e   0.48541508 +/- 0.326            Incl.    5.955127 +/- 4.0
P   2.196/802.149d         H 24.86  G  0.15   U 12.2
q 0.869427641 +/- 0.00472    Q 2.509713929 +/- 2.14
From 16 observations 2026 Apr. 16 (97.6 min); mean residual 0".24
Residuals in arcseconds: 
260416 G96  .23-  .29-    260416 I52  .04+  .44+    260416 I52  .10-  .16-    
260416 G96  .35+  .06+    260416 I52  .35-  .09+    260416 I52  .15+  .12-    
260416 G96  .24+  .14-    260416 I52  .24+  .60-    260416 I52  .10+  .19-    
260416 G96  .36-  .18+    260416 I52  .17+  .66+    260416 I52  .15-  .08-    
260416 H01  .05-  .03-    260416 H01  .05-  .08+    
260416 H01  .02-  .00     260416 H01  .06+  .10+    

Ephemerides (geocentric):
Date (UTC) HH   RA             Dec           delta  r     elong  mag " sig PA
---- --------  ------------   ------------  ------ ------ -----  --- --------
2026 04 17 00  16 24 14.984   +05 24 28.36  .07985 1.0625 135.9 21.1 56.1  89
2026 04 17 01  16 23 59.147   +05 24 11.88  .08008 1.0628 136.0 21.1 65.9  89
2026 04 17 02  16 23 43.393   +05 23 55.42  .08031 1.0631 136.1 21.1 76.5  88
2026 04 17 03  16 23 27.721   +05 23 38.97  .08055 1.0633 136.2 21.1 87.8  88
2026 04 17 04  16 23 12.132   +05 23 22.55  .08078 1.0636 136.3 21.1  100  88
2026 04 17 05  16 22 56.623   +05 23 06.13  .08102 1.0639 136.4 21.1  113  88
2026 04 17 06  16 22 41.195   +05 22 49.74  .08125 1.0642 136.5 21.1  126  87
2026 04 17 07  16 22 25.847   +05 22 33.36  .08149 1.0644 136.6 21.1  140  87
2026 04 17 08  16 22 10.578   +05 22 17.00  .08172 1.0647 136.7 21.2  155  87
2026 04 17 09  16 21 55.387   +05 22 00.66  .08196 1.0650 136.8 21.2  170  87
2026 04 17 10  16 21 40.274   +05 21 44.33  .08219 1.0653 136.9 21.2  186  87
2026 04 17 11  16 21 25.239   +05 21 28.01  .08243 1.0655 137.0 21.2  203  87
2026 04 17 12  16 21 10.280   +05 21 11.71  .08266 1.0658 137.0 21.2  220  87
2026 04 17 13  16 20 55.397   +05 20 55.43  .08290 1.0661 137.1 21.2  239  87
2026 04 17 14  16 20 40.589   +05 20 39.16  .08313 1.0664 137.2 21.2  257  87
2026 04 17 15  16 20 25.856   +05 20 22.91  .08337 1.0666 137.3 21.2  276  87
2026 04 17 16  16 20 11.197   +05 20 06.67  .08360 1.0669 137.4 21.2  296  87
2026 04 17 17  16 19 56.612   +05 19 50.45  .08384 1.0672 137.5 21.2  317  87
2026 04 17 18  16 19 42.100   +05 19 34.24  .08408 1.0675 137.6 21.2  338  87
2026 04 17 19  16 19 27.660   +05 19 18.04  .08431 1.0678 137.7 21.2  360  86
2026 04 17 20  16 19 13.292   +05 19 01.86  .08455 1.0680 137.8 21.2  382  86
2026 04 17 21  16 18 58.995   +05 18 45.69  .08479 1.0683 137.8 21.2  405  86
2026 04 17 22  16 18 44.769   +05 18 29.54  .08502 1.0686 137.9 21.2  428  86
2026 04 17 23  16 18 30.613   +05 18 13.40  .08526 1.0689 138.0 21.2  452  86
2026 04 18 00  16 18 16.527   +05 17 57.27  .08550 1.0691 138.1 21.2  477  86
2026 04 18 01  16 18 02.510   +05 17 41.15  .08573 1.0694 138.2 21.2  502  86
2026 04 18 02  16 17 48.561   +05 17 25.05  .08597 1.0697 138.3 21.2  527  86
2026 04 18 03  16 17 34.681   +05 17 08.96  .08621 1.0700 138.4 21.2  554  86
2026 04 18 04  16 17 20.867   +05 16 52.88  .08644 1.0702 138.4 21.2  580  86
2026 04 18 05  16 17 07.121   +05 16 36.82  .08668 1.0705 138.5 21.2  607  86
2026 04 18 06  16 16 53.441   +05 16 20.76  .08692 1.0708 138.6 21.2  635  86
2026 04 18 07  16 16 39.827   +05 16 04.72  .08716 1.0711 138.7 21.2  663  86
2026 04 18 08  16 16 26.278   +05 15 48.69  .08739 1.0714 138.8 21.2  692  86
2026 04 18 09  16 16 12.794   +05 15 32.68  .08763 1.0716 138.9 21.3  721  86
2026 04 18 10  16 15 59.375   +05 15 16.67  .08787 1.0719 138.9 21.3  751  86
2026 04 18 11  16 15 46.019   +05 15 00.67  .08811 1.0722 139.0 21.3  781  86
2026 04 18 12  16 15 32.727   +05 14 44.69  .08835 1.0725 139.1 21.3  812  86
2026 04 18 13  16 15 19.498   +05 14 28.71  .08859 1.0727 139.2 21.3  843  86
2026 04 18 14  16 15 06.331   +05 14 12.75  .08882 1.0730 139.3 21.3  874  86
2026 04 18 15  16 14 53.227   +05 13 56.79  .08906 1.0733 139.4 21.3  906  86
2026 04 18 16  16 14 40.183   +05 13 40.85  .08930 1.0736 139.4 21.3  939  86
2026 04 18 17  16 14 27.201   +05 13 24.92  .08954 1.0739 139.5 21.3  972  86
2026 04 18 18  16 14 14.280   +05 13 08.99  .08978 1.0741 139.6 21.3 1005  86
2026 04 18 19  16 14 01.418   +05 12 53.08  .09002 1.0744 139.7 21.3 1039  86
2026 04 18 20  16 13 48.616   +05 12 37.17  .09026 1.0747 139.8 21.3 1073  86
2026 04 18 21  16 13 35.874   +05 12 21.28  .09050 1.0750 139.8 21.3 1108  86
2026 04 18 22  16 13 23.190   +05 12 05.39  .09074 1.0752 139.9 21.3 1143  86
2026 04 18 23  16 13 10.564   +05 11 49.51  .09098 1.0755 140.0 21.3 1178  86